EHI
6 5 6 8 5 1 0 0 0 0 0 0 0 0 0 0 0 0 0 0 0 0 0 0 0 0 0 0 1 2 2 1 0 0 0 0 0 0 0 0 0 1 1 1 1 1 0 0 0
6 8 11 8 3 0 0 0 0 0 0 0 0 0 0 0 0 0 0 0 0 0 0 0 0 0 0 0 1 2 3 1 0 0 0 0 0 0 0 0 0 0 0 1 2 2 1 0 0
9 14 15 7 1 0 0 0 0 0 0 0 0 0 0 0 0 0 0 0 0 0 0 0 0 0 0 0 1 2 3 2 1 0 0 0 0 0 0 0 0 0 0 1 2 2 1 0 0
13 17 13 4 0 0 0 0 0 0 0 0 0 0 0 0 0 0 0 0 0 0 0 1 1 0 0 0 0 1 2 3 2 1 0 0 0 0 0 0 0 0 0 1 1 1 0 0 0
14 13 8 2 0 0 0 0 0 0 0 0 0 0 0 0 0 0 0 0 0 0 0 2 3 2 1 0 0 0 1 2 3 2 1 0 0 0 0 0 0 0 0 1 0 0 0 0 0
10 8 3 0 0 0 0 0 0 0 0 0 0 0 0 0 0 0 0 0 0 0 0 2 4 3 2 1 0 0 0 1 2 2 2 1 1 0 0 0 0 0 0 0 0 0 0 0 1
4 3 1 0 0 0 0 0 0 0 0 0 0 0 0 0 0 0 0 0 0 0 0 1 2 2 1 1 0 0 0 0 1 1 2 2 2 1 0 0 0 0 0 0 0 0 0 1 2
1 0 0 0 0 0 0 0 0 0 0 0 0 0 0 1 1 1 0 0 0 0 0 0 0 0 0 0 0 0 0 0 0 0 1 1 1 1 0 0 0 0 0 0 0 0 0 1 2
0 0 0 0 0 0 0 0 0 0 0 0 0 0 1 2 2 2 1 0 1 0 0 0 0 0 0 0 0 0 0 0 0 0 0 0 0 0 0 0 0 0 0 0 0 0 0 0 1
0 0 0 0 0 0 0 0 0 0 0 0 0 0 1 3 3 2 1 0 0 0 0 0 0 0 0 0 0 0 0 0 0 0 0 0 0 0 0 0 0 0 0 0 0 0 0 0 0
0 0 0 0 0 0 0 0 0 0 0 0 0 1 2 3 2 1 0 1 1 0 0 0 0 0 0 0 0 0 0 0 0 0 0 1 1 0 0 0 0 0 0 0 0 0 0 0 0
0 0 0 0 0 0 0 0 0 0 0 0 0 1 1 2 1 1 1 2 2 1 0 0 0 0 0 0 0 0 0 0 0 0 1 2 2 1 0 1 1 1 0 0 1 0 0 0 0
0 0 0 0 0 0 0 0 0 0 0 0 1 1 0 0 0 0 1 2 3 2 1 0 0 0 0 0 0 0 0 0 0 0 1 2 3 2 2 2 2 2 1 0 0 0 0 0 0
0 0 0 0 0 0 0 0 0 0 0 0 0 0 0 0 0 0 2 3 4 2 1 0 0 0 0 0 1 0 0 0 0 0 1 2 3 3 3 3 3 2 1 0 0 0 0 0 0
0 0 0 0 0 0 0 0 1 1 0 0 0 1 1 1 0 2 4 5 4 2 1 0 0 0 0 1 1 0 0 0 0 0 1 2 3 3 3 3 2 2 1 0 0 0 0 0 0
0 0 0 0 0 0 0 1 2 2 1 0 1 2 2 2 2 4 6 7 5 4 3 1 0 0 1 2 2 1 1 0 0 0 0 1 2 1 1 1 1 1 0 0 0 0 0 0 0
0 0 0 0 0 0 0 1 2 2 1 0 1 2 3 3 3 6 8 8 7 7 6 3 1 1 2 3 3 3 2 1 1 0 0 1 1 0 0 0 0 0 0 0 0 0 0 0 0
0 0 0 0 0 0 0 1 1 1 1 1 1 2 3 3 4 7 9 8 7 7 7 4 2 3 4 4 4 4 4 3 3 2 1 1 0 0 0 0 0 0 0 0 0 0 0 0 0
0 0 0 0 0 0 0 0 1 1 2 2 2 2 2 4 5 7 8 8 7 6 6 5 3 3 4 5 6 6 6 5 5 5 3 1 0 0 0 0 0 0 0 0 0 0 0 0 0
0 0 0 0 0 0 0 0 1 2 3 3 3 2 2 3 6 9 10 9 8 7 7 5 4 3 4 5 7 8 7 6 5 5 4 3 1 0 0 0 0 0 0 0 0 0 0 0 0
0 0 0 0 0 0 0 0 1 3 4 4 3 3 2 3 7 11 12 10 9 8 6 5 5 5 4 5 7 8 7 5 4 4 4 4 3 1 1 1 1 0 1 1 0 0 0 0 0
0 0 0 0 0 0 0 0 2 4 5 5 5 5 3 4 8 12 12 10 8 6 5 5 7 7 6 6 6 6 5 4 4 4 4 5 4 3 3 3 2 2 3 3 2 1 1 1 1
0 0 0 0 0 0 0 0 1 3 5 7 9 8 6 7 11 12 11 9 6 4 3 5 8 9 8 8 6 5 5 4 4 5 7 6 5 4 5 4 3 4 5 5 4 4 4 4 3
0 0 0 0 0 0 0 0 1 3 4 7 11 11 11 13 16 16 13 9 5 3 3 6 10 11 10 8 7 7 6 6 6 8 8 7 5 6 6 5 4 4 4 4 5 5 5 4 4
0 0 0 0 0 0 0 0 2 4 6 7 9 12 15 19 21 21 18 12 7 4 3 6 11 13 11 9 9 9 9 9 9 9 8 6 5 6 7 6 5 4 3 3 4 4 4 3 3
0 0 0 0 0 0 0 1 4 6 7 7 8 12 17 22 23 21 18 13 8 5 5 7 11 14 14 12 12 14 14 12 10 9 8 6 6 7 8 7 6 4 3 3 3 3 3 3 3
0 0 0 0 0 0 0 2 4 6 6 7 9 15 21 25 24 18 13 10 8 8 9 10 12 16 17 16 17 18 16 13 11 9 8 8 8 7 8 7 6 4 3 3 3 3 3 3 3
0 0 0 0 0 0 1 3 5 7 8 7 10 17 23 25 23 17 11 7 7 9 11 13 15 18 19 19 19 17 16 15 12 10 9 10 10 8 7 7 6 4 3 3 3 4 4 4 4
0 0 0 0 0 0 1 4 8 11 12 10 11 15 20 21 21 18 13 9 8 10 12 14 17 19 21 21 20 18 16 14 13 11 10 12 11 8 6 6 6 4 3 3 4 4 4 4 4
0 0 0 0 0 0 1 4 9 14 15 13 12 13 15 18 20 19 15 12 11 11 12 13 16 19 21 22 22 20 15 13 13 13 12 13 12 9 6 6 6 4 3 3 4 4 4 4 4
Wind_Speed
12 9 6 5 5 5 11 9 7 7 7 7 7 6 8 9 8 8 6 5 5 5 7 8 7 8 9 10 11 11 12 12 12 13 13 12 12 13 13 13 13 12 12 12 12 13 13 13 13
8 6 6 5 1 9 11 9 9 9 8 7 7 7 9 10 9 8 6 5 5 6 7 9 8 8 8 9 10 11 11 12 12 12 12 12 11 11 12 12 12 12 11 11 11 12 13 13 13
6 6 5 1 8 11 11 9 9 9 6 5 6 7 8 8 7 6 7 6 6 7 7 10 8 8 8 9 10 10 11 11 11 12 11 11 11 11 11 11 11 11 10 10 11 12 12 12 12
5 6 4 4 14 12 9 8 7 7 7 6 6 8 8 7 5 7 7 6 7 7 8 11 8 8 8 9 10 10 10 10 10 11 11 11 10 10 10 10 10 10 9 9 10 11 11 11 11
6 4 2 10 13 10 9 7 5 6 6 6 7 10 10 7 8 9 7 6 7 7 8 11 9 8 9 9 9 9 10 10 9 10 10 10 10 10 9 9 10 10 9 9 10 11 10 10 10
5 2 4 10 12 9 8 6 6 9 9 8 9 10 9 7 8 8 8 6 7 7 8 11 11 9 9 8 8 8 9 9 9 9 10 10 10 9 9 9 9 9 9 9 10 10 9 9 9
3 3 8 10 10 9 8 6 6 7 8 7 6 9 9 8 7 7 7 7 6 7 7 7 9 10 9 8 8 8 8 8 8 9 9 9 9 8 8 9 9 8 8 8 8 9 8 8 8
4 1 7 8 9 10 8 6 6 7 9 7 4 6 9 9 8 7 8 7 7 6 7 6 6 7 7 8 8 7 7 7 7 8 8 8 8 9 8 8 9 8 8 7 7 7 7 7 6
5 1 8 8 7 9 8 8 7 6 9 7 6 9 12 12 9 8 8 7 7 6 5 6 6 5 5 6 8 7 8 7 6 7 7 5 5 6 6 9 8 7 7 7 7 6 6 6 7
3 5 10 7 6 8 8 7 7 7 8 9 10 12 12 11 9 8 8 8 7 7 6 5 5 5 5 4 5 4 4 5 3 4 4 4 4 3 5 9 8 7 7 7 6 5 5 5 5
2 6 7 6 7 7 8 8 6 7 7 8 11 13 12 10 8 8 7 7 7 7 6 5 5 4 4 3 3 2 2 3 4 4 3 3 3 3 4 4 6 6 6 4 5 5 3 2 2
4 5 5 6 7 7 8 7 6 5 8 9 11 13 12 10 8 8 8 7 7 6 6 5 5 4 2 2 2 2 2 2 2 3 2 3 2 2 3 2 2 3 3 3 2 2 2 2 2
4 5 6 6 7 7 7 7 7 8 9 11 12 12 10 9 8 7 7 6 6 6 6 5 4 3 3 2 0 2 2 2 3 2 2 2 2 2 2 2 1 1 2 3 3 2 2 2 2
5 6 7 7 8 7 7 7 6 9 11 12 12 11 10 8 8 7 7 6 6 5 5 5 4 4 3 2 1 1 1 2 1 2 3 1 1 2 2 2 2 2 2 2 2 2 2 1 1
6 7 7 6 6 6 6 6 6 10 11 12 11 10 9 8 8 7 7 6 6 5 5 4 4 4 3 2 2 1 1 2 2 2 3 2 2 2 1 2 2 2 2 2 2 2 2 2 2
6 6 6 6 5 5 6 4 9 11 11 11 11 10 9 7 7 7 7 6 6 5 5 4 3 4 4 2 1 0 1 1 2 2 2 2 2 2 1 2 2 2 2 2 2 2 1 1 1
7 4 3 7 6 5 5 3 9 11 11 11 10 10 9 9 8 8 8 7 6 6 6 5 4 4 3 3 2 1 1 1 1 2 2 2 2 2 2 1 2 2 2 2 2 2 1 1 1
3 3 3 3 6 7 6 3 8 11 11 11 10 10 10 10 9 8 8 8 7 7 6 5 5 4 3 3 2 2 2 1 1 2 2 2 2 2 1 2 2 2 2 1 1 1 1 0 0
4 4 3 1 3 6 6 5 8 11 12 11 11 11 11 10 9 9 9 8 8 8 7 6 5 5 3 2 2 2 2 2 2 2 2 2 1 2 0 1 2 1 1 1 2 1 2 2 1
7 7 4 3 3 6 5 6 6 11 13 12 12 12 12 11 11 10 10 10 9 9 8 7 6 5 5 3 2 2 1 1 1 1 2 1 1 1 1 1 1 1 1 2 1 1 1 1 1
9 8 5 3 4 7 6 7 8 10 12 12 12 12 12 12 12 12 12 11 10 9 9 7 6 5 5 4 3 3 2 2 2 2 2 1 1 1 0 1 1 1 1 1 1 1 2 1 1
10 7 6 5 7 5 6 5 6 9 11 13 13 13 13 13 13 12 13 12 11 10 9 8 7 6 5 5 4 4 3 2 2 2 2 2 2 2 2 1 1 1 1 1 2 1 2 2 2
6 3 6 7 8 7 6 8 3 8 9 11 13 14 14 14 14 14 13 12 11 10 9 9 8 7 6 6 5 5 3 2 2 2 3 2 2 2 2 2 1 1 1 1 1 0 2 2 2
5 5 6 8 9 9 6 8 3 4 6 7 11 12 13 14 14 13 13 12 11 10 10 9 9 8 7 7 6 5 4 3 2 3 3 3 3 3 3 2 2 2 1 1 1 1 2 1 2
11 10 8 9 9 6 4 7 3 1 2 4 7 10 12 13 14 14 14 13 12 11 11 9 10 9 8 8 7 6 5 5 4 3 3 3 2 2 3 2 2 1 1 1 1 1 1 2 2
14 15 11 9 8 5 6 7 2 1 1 3 5 7 10 12 13 14 14 13 12 12 11 11 10 9 9 8 7 6 6 5 4 3 3 2 2 1 2 2 2 2 2 1 1 1 1 1 2
13 14 12 12 11 10 6 5 4 3 3 4 5 7 9 10 12 12 13 12 12 12 11 11 10 9 9 8 8 7 6 4 3 4 4 3 2 2 3 3 3 2 2 1 2 0 1 1 2
10 10 9 11 10 11 9 8 6 5 4 5 6 7 8 9 10 11 11 12 11 11 10 10 10 9 8 8 7 6 6 6 5 4 3 3 2 2 2 3 3 2 2 1 2 1 1 1 1
9 11 11 10 11 11 9 5 1 4 4 5 6 6 7 9 10 10 10 10 11 10 10 10 9 9 8 7 6 6 6 6 5 4 4 4 3 4 3 3 3 2 2 2 1 1 1 2 1
11 11 12 11 10 11 11 3 3 3 3 3 5 6 6 7 8 9 10 10 10 10 10 10 9 8 8 7 7 7 6 5 5 5 5 4 4 4 4 3 3 3 2 2 2 2 2 2 2
Wind_Direction
172 182 211 236 224 87 65 62 64 74 70 62 58 59 60 45 40 73 83 86 83 85 92 101 84 83 82 83 89 94 98 100 100 99 97 99 102 107 109 109 110 111 115 117 120 123 124 126 126
170 189 229 240 38 75 69 64 66 65 87 97 79 75 75 67 64 87 103 97 100 90 92 86 88 88 86 86 89 90 96 98 100 100 100 100 101 105 105 105 106 108 111 116 122 125 127 127 126
178 228 260 301 54 57 67 72 81 88 95 88 85 64 60 72 76 84 95 111 109 94 91 94 96 95 91 91 91 92 94 97 100 102 104 106 105 102 102 104 105 107 110 117 124 128 128 127 126
213 223 230 68 67 61 68 79 93 101 87 78 94 87 76 61 74 96 110 122 106 103 102 100 99 98 93 94 96 97 99 101 101 102 104 104 104 104 104 105 106 107 108 114 122 127 127 128 130
240 253 107 77 70 70 75 79 79 82 82 88 93 96 87 74 93 107 117 113 103 99 98 104 100 99 97 97 99 98 101 103 102 102 103 104 104 104 105 105 107 109 111 113 121 125 128 132 134
244 242 67 73 79 81 83 82 87 87 98 101 103 101 88 105 109 111 111 105 100 99 102 108 113 106 102 98 97 95 99 102 104 105 105 104 104 103 102 104 105 107 111 112 116 123 129 133 137
298 31 68 76 86 89 84 81 81 95 99 94 101 102 110 116 112 117 111 105 98 97 100 105 119 122 120 108 100 99 101 105 108 108 109 110 109 108 106 105 103 102 103 109 116 121 124 129 132
297 278 85 77 78 87 99 96 82 87 93 102 102 106 122 127 129 125 118 110 101 98 100 104 101 104 117 118 114 108 110 112 113 114 115 121 126 123 121 119 105 101 100 103 111 117 118 120 128
255 241 70 68 70 97 117 112 96 97 107 100 82 91 113 129 135 133 126 118 114 108 105 104 104 107 105 106 115 125 130 127 141 134 138 155 131 122 129 100 101 104 104 103 107 118 132 146 148
268 50 62 61 76 107 123 114 121 127 117 112 108 110 122 137 145 140 129 125 121 115 109 107 106 106 106 103 112 117 122 120 113 101 119 121 113 110 113 114 117 115 114 116 116 125 161 194 161
50 53 70 85 91 110 123 122 129 126 120 124 132 135 140 142 145 137 128 124 119 120 117 120 110 105 105 113 114 104 110 114 118 108 114 116 129 133 133 130 143 141 150 140 143 173 170 146 119
88 73 82 98 109 120 119 122 119 101 98 120 132 139 144 150 148 143 132 128 124 123 125 121 118 115 97 75 101 126 118 120 113 119 141 124 116 119 108 122 127 142 133 127 137 136 131 134 144
107 89 91 108 119 120 125 120 111 109 116 128 137 144 149 151 148 142 135 137 137 135 132 125 124 122 121 115 170 110 122 134 123 120 115 125 133 119 117 115 117 125 126 144 149 143 134 154 161
101 114 116 121 121 132 135 127 130 121 137 140 149 153 156 155 152 148 153 153 151 148 142 137 144 140 143 150 154 121 148 160 142 128 118 148 119 114 137 141 139 133 140 128 147 150 156 172 160
141 138 137 137 140 145 160 142 134 140 150 153 158 160 161 163 161 164 167 167 164 160 155 155 162 151 157 167 175 159 183 150 144 132 138 155 138 128 162 139 157 131 131 141 166 151 166 176 181
186 193 162 148 168 170 225 117 138 157 165 164 165 167 173 176 177 169 171 175 170 167 162 173 173 152 161 161 174 103 94 120 135 133 133 140 136 159 193 159 135 140 158 155 158 175 177 153 181
203 208 153 148 183 186 223 120 143 170 176 174 175 176 180 180 186 178 178 178 176 176 173 175 177 167 167 161 158 130 97 91 119 131 130 134 151 161 184 145 120 172 158 159 180 135 164 143 175
206 224 195 173 174 207 219 166 158 179 187 185 184 185 188 189 187 183 182 178 179 179 177 177 177 175 177 166 162 150 121 132 133 123 111 125 142 147 172 152 149 181 147 150 116 119 132 229 235
254 259 238 161 167 215 225 215 181 184 194 193 194 193 195 196 184 182 183 183 180 179 180 184 190 178 184 177 182 166 154 154 129 127 122 140 123 121 194 128 136 195 148 158 169 177 183 202 183
238 244 231 173 176 238 238 237 202 191 202 201 200 199 199 194 186 184 187 186 185 182 184 185 190 188 193 176 175 174 159 158 140 112 112 136 133 143 152 125 183 169 161 178 180 196 257 204 180
234 245 250 237 189 220 251 224 198 192 205 208 210 207 203 199 192 187 190 192 188 184 187 186 186 189 197 187 182 170 172 186 156 154 154 155 157 158 99 168 210 169 216 161 195 211 238 267 236
233 233 244 231 232 218 241 260 176 189 200 207 210 208 205 201 197 191 191 192 190 187 185 186 186 188 190 193 196 189 187 183 174 180 149 155 157 159 155 161 169 204 200 150 219 178 249 255 256
243 225 231 232 243 255 223 262 175 180 206 206 206 207 206 199 195 193 192 190 190 189 185 184 184 186 188 195 193 202 199 196 172 173 149 180 156 169 169 167 166 182 202 159 266 230 271 263 274
186 187 203 227 239 244 238 257 236 187 221 210 199 203 203 198 193 192 189 186 189 188 188 185 183 187 190 196 197 203 199 204 190 186 172 187 170 175 171 178 179 191 176 175 230 236 215 280 281
205 216 217 220 223 236 195 247 269 35 234 227 202 197 199 196 193 190 189 187 189 190 189 186 184 187 191 194 196 196 196 198 201 211 193 215 184 173 163 177 177 184 182 212 234 219 253 253 257
216 231 241 249 248 228 194 240 225 87 172 208 204 190 190 190 189 188 187 188 189 191 190 189 187 188 188 189 191 194 199 205 197 207 224 203 211 181 154 172 180 193 217 225 207 241 228 237 253
216 230 250 257 260 262 228 223 213 194 190 180 177 174 181 185 184 183 183 185 185 188 188 189 186 187 188 188 186 189 196 205 198 192 209 203 199 187 172 182 185 194 207 234 242 246 270 267 261
247 231 234 247 250 253 239 232 230 207 199 173 171 173 175 177 178 178 181 182 182 183 182 184 183 184 186 187 191 184 188 192 195 200 190 190 189 185 184 186 189 194 193 204 243 220 183 256 266
203 220 233 244 254 257 253 234 181 183 193 179 165 163 167 172 173 174 177 178 177 178 177 179 180 181 182 181 183 187 187 185 184 188 190 190 190 182 188 194 196 196 195 194 207 252 226 251 271
227 225 224 236 238 251 264 240 114 155 171 170 153 153 161 165 167 169 169 171 175 178 177 177 180 181 179 176 179 185 185 186 190 186 189 191 189 191 187 195 200 207 200 202 213 243 242 250 260